Weather History for KAMW - November, 2012

Change the Weather History Date:

Sunday, November 4, 2012

  Actual Average Record
Temperature  
Mean Temperature 43 °F 42 °F  
Max Temperature 48 °F 53 °F 72 °F (2008)
Min Temperature 38 °F 32 °F 20 °F (2011)
Degree Days  
Heating Degree Days 22 22  
Month to date heating degree days 89 87  
Since 1 July heating degree days 741 683  
Cooling Degree Days 0 0  
Month to date cooling degree days 0 0  
Year to date cooling degree days 1067 752  
Moisture  
Dew Point 36 °F    
Average Humidity 80    
Maximum Humidity 89    
Minimum Humidity 70    
Precipitation  
Precipitation 0.11 in 0.10 in 0.97 in (1996)
Month to date precipitation 0.11 0.39  
Sea Level Pressure  
Sea Level Pressure 30.16 in    
Wind  
Wind Speed 6 mph (SE)    
Max Wind Speed 14 mph    
Max Gust Speed 17 mph    
Visibility 7 miles    
Events Rain    
T = Trace of Precipitation, MM = Missing Value Source: NWS Daily Summary

Daily Weather History Graph

Daily Weather History Graph

Search for Another Location

Airport or City:

Trip Planner

Search our weather history database for the weather conditions in past years. The results will help you decide how hot, cold, wet, or windy it might be!

Date:

Astronomy

Nov. 04, 2012 Rise Set
Actual Time 6:51 AM CST 5:04 PM CST
Civil Twilight 6:22 AM CST 5:33 PM CST
Nautical Twilight 5:48 AM CST 6:06 PM CST
Astronomical Twilight 5:16 AM CST 6:39 PM CST
Moon 9:42 PM CST (11/4) 11:36 AM CST (11/4)
Length of Visible Light 11h 11m
Length of Day
10h 12m
Waning Gibbous, 72% of the Moon is Illuminated
Nov 4
Waning Gibbous
Nov 6
Last Quarter
Nov 13
New
Nov 20
First Quarter
Nov 28
Full

Hourly Weather History & Observations

Time (CST) Temp. Windchill Dew Point Humidity Pressure Visibility Wind Dir Wind Speed Gust Speed Precip Events Conditions
12:53 AM 37.9 °F - 30.9 °F 76% 30.21 in 9.0 mi Calm Calm - N/A   Overcast
1:53 AM 39.0 °F - 32.0 °F 76% 30.22 in 9.0 mi Calm Calm - N/A   Overcast
1:53 AM 39.0 °F - 30.9 °F 73% 30.21 in 9.0 mi Calm Calm - N/A   Overcast
2:53 AM 37.9 °F - 32.0 °F 79% 30.21 in 9.0 mi Calm Calm - N/A   Overcast
3:53 AM 39.0 °F - 32.0 °F 76% 30.21 in 8.0 mi Calm Calm - N/A   Overcast
4:53 AM 39.0 °F - 32.0 °F 76% 30.21 in 8.0 mi Calm Calm - N/A   Overcast
6:53 AM 37.9 °F 34.4 °F 33.1 °F 83% 30.22 in 7.0 mi SE 4.6 mph - N/A   Overcast
7:53 AM 39.0 °F 35.7 °F 34.0 °F 82% 30.23 in 6.0 mi SSE 4.6 mph - N/A   Haze
8:53 AM 39.9 °F 35.8 °F 34.0 °F 79% 30.22 in 6.0 mi SSE 5.8 mph - N/A   Haze
9:53 AM 41.0 °F 38.0 °F 35.1 °F 79% 30.21 in 5.0 mi SE 4.6 mph - N/A   Haze
10:53 AM 43.0 °F 38.2 °F 37.0 °F 80% 30.20 in 6.0 mi SE 8.1 mph - N/A   Haze
11:53 AM 42.1 °F 38.4 °F 39.0 °F 89% 30.18 in 4.0 mi SE 5.8 mph - 0.01 in Rain Light Rain
12:53 PM 45.0 °F 41.8 °F 39.9 °F 82% 30.15 in 6.0 mi ESE 5.8 mph - 0.00 in   Haze
1:53 PM 46.9 °F - 39.0 °F 74% 30.13 in 8.0 mi SE 10.4 mph - N/A   Overcast
2:53 PM 46.9 °F - 37.9 °F 71% 30.11 in 9.0 mi ESE 8.1 mph - N/A   Overcast
3:53 PM 46.9 °F - 37.9 °F 71% 30.11 in 9.0 mi ESE 9.2 mph - N/A   Overcast
4:53 PM 46.0 °F 41.9 °F 37.9 °F 73% 30.10 in 9.0 mi ESE 8.1 mph - N/A   Overcast
5:53 PM 45.0 °F 41.8 °F 39.0 °F 80% 30.12 in 9.0 mi ESE 5.8 mph - 0.00 in   Overcast
6:53 PM 45.0 °F 41.2 °F 39.9 °F 82% 30.12 in 8.0 mi ESE 6.9 mph - 0.00 in Rain Light Rain
7:53 PM 44.1 °F 39.0 °F 39.9 °F 85% 30.11 in 8.0 mi ESE 9.2 mph - 0.01 in   Overcast
8:53 PM 43.0 °F 38.2 °F 39.9 °F 89% 30.11 in 7.0 mi ESE 8.1 mph - 0.00 in Rain Light Rain
9:53 PM 42.1 °F 36.1 °F 39.0 °F 89% 30.11 in 6.0 mi ESE 10.4 mph - 0.03 in Rain Light Rain
10:41 PM 42.8 °F 38.6 °F - N/A% 30.09 in 6.0 mi ESE 6.9 mph - 0.02 in Rain Light Rain
10:53 PM 42.1 °F 36.6 °F - N/A% 30.10 in 5.0 mi ESE 9.2 mph - 0.03 in Rain Light Rain